Location: Unspecified
(42.9300°N, 71.1866°W)
Time: 08:27:04
(UTC-04:00)

Okean 3 - Visible Passes

Search period start: 23 June 2018 00:00
Search period end: 03 July 2018 00:00
Orbit: 576 x 603 km, 82.5° (Epoch: 22 June)

Date Brightness Start Highest point End Pass type
(mag) Time Alt. Az. Time Alt. Az. Time Alt. Az.
23 Jun 6.2 02:39:08 10° NNE 02:41:36 15° ENE 02:44:03 10° ESE visible
23 Jun 3.8 04:15:05 10° NNW 04:19:07 46° W 04:23:08 10° SSW visible
24 Jun 5.8 02:46:34 10° NNE 02:49:49 21° ENE 02:53:06 10° ESE visible
24 Jun 4.4 04:23:24 10° NNW 04:27:06 31° W 04:30:49 10° SSW visible
25 Jun 5.1 02:54:15 10° NNE 02:58:01 31° ENE 03:01:46 10° SE visible
25 Jun 4.9 04:31:53 10° NW 04:35:03 21° W 04:38:14 10° SW visible
26 Jun 4.4 03:02:05 10° N 03:06:09 46° ENE 03:10:14 10° SSE visible
27 Jun 3.6 03:10:03 10° N 03:14:15 71° E 03:17:55 14° SSE visible
28 Jun 3.4 03:18:06 10° NNW 03:22:19 76° W 03:25:24 18° S visible
29 Jun 6.1 01:50:29 10° NE 01:52:48 14° ENE 01:55:07 10° ESE visible
29 Jun 3.7 03:26:16 10° NNW 03:30:21 49° W 03:32:56 21° SSW visible
30 Jun 5.7 01:57:50 10° NNE 02:01:02 20° ENE 02:04:00 11° ESE visible
30 Jun 4.3 03:34:33 10° NNW 03:38:21 33° W 03:40:30 20° SW visible
01 Jul 5.1 02:05:29 10° NNE 02:09:14 29° ENE 02:11:37 18° SE visible
01 Jul 4.8 03:42:59 10° NW 03:46:18 22° W 03:48:07 17° WSW visible
02 Jul 4.4 02:13:18 10° N 02:17:22 43° ENE 02:19:15 27° SE visible
02 Jul 5.3 03:51:43 10° NW 03:54:13 15° W 03:55:46 13° WSW visible
